[[{"header":{"parameterUnit":"m.s-1","parameterCategory":1,"la1":30.2991,"la2":30.254,"lo1":-89.0895,"lo2":-89.0444,"dy":0.0017,"dx":0.0017,"nx":28,"ny":28,"refTime":"2025-04-08T03:00:00:Z","depth":0,"parameterNumber":2,"parameterNumberName":"U-component_of_WINDS"},"data":[0,0,0,0,0,0,0,0,0,0,0,0,0,0,0,0,0,0,0,0,0,0,0,0,0,0,0,0,0,0,0,0,0,0,0,0,0,0,0,0,0,0,0,0,0,0,0,0,0,0,0,0,0,0,0,0,0,0,0.6372,0.6372,0,0.6397,0.6398,0.6398,0.6389,0.6389,0.6388,0.6388,0.6414,0.6415,0.6416,0,0,0,0,0,0,0,0,0,0,0,0,0,0.6315,0.6316,0.6372,0.6372,0.6373,0.6397,0.6398,0.6398,0.6389,0.6389,0.6388,0.6387,0.6413,0.6415,0.6416,0,0,0,0,0,0,0,0,0,0,0,0,0,0.634,0.6316,0.6372,0.6371,0.6372,0.6397,0.6398,0.6398,0.639,0.6389,0.6388,0.6387,0.6413,0.6414,0.6416,0.6444,0,0,0.6422,0.6423,0,0,0,0,0,0,0,0,0.6338,0.6342,0.6371,0.6371,0.6372,0.6389,0.6387,0.6414,0.639,0.6383,0.6388,0.6387,0.6406,0.6409,0.6415,0.6446,0.6447,0.6422,0.6423,0.6424,0.6424,0,0,0,0,0,0,0,0.6337,0.6341,0.6382,0.6372,0.6372,0.6369,0.6372,0.6392,0.6399,0.6383,0.6383,0.6386,0.6406,0.6413,0.6416,0.6447,0.6422,0.6424,0.6425,0.6425,0.6499,0.6499,0,0,0,0,0,0,0.6335,0.6339,0.6381,0.6383,0.6353,0.6371,0.6374,0.6385,0.6399,0.64,0.6386,0.6385,0.6411,0.6414,0.6417,0.6448,0.6424,0.6426,0.6427,0.6498,0.6499,0.65,0,0,0,0,0,0,0.6334,0.6339,0.638,0.6361,0.6366,0.6373,0.6385,0.6385,0.6393,0.6401,0.6402,0.6393,0.641,0.6414,0.6437,0.6449,0.6426,0.6428,0.6497,0.6498,0.6499,0.6513,0,0,0,0,0,0,0.6332,0.6338,0.635,0.6361,0.6367,0.6401,0.6386,0.6387,0.6396,0.6394,0.6407,0.6408,0.641,0.6434,0.6439,0.6451,0.6429,0.6496,0.6497,0.6499,0.6512,0.6515,0.6517,0,0,0,0,0,0.633,0.6353,0.635,0.6355,0.6381,0.6402,0.6405,0.6406,0.6397,0.6408,0.6413,0.6408,0.6447,0.6437,0.6442,0.6455,0.6495,0.6497,0.6499,0.651,0.6514,0.6517,0,0,0,0,0,0,0.6343,0.6355,0.6352,0.6379,0.6389,0.64,0.6414,0.641,0.6423,0.6422,0.6422,0.6425,0.6448,0.6454,0.6442,0.6481,0.647,0.6473,0.6477,0.648,0.6483,0.6481,0.6431,0,0,0,0,0,0.6349,0.6365,0.6374,0.6398,0.6403,0.6407,0.6416,0.6416,0.6427,0.6431,0.6438,0.6448,0.6462,0.6472,0.6486,0.6512,0.6514,0.6524,0.6527,0.6529,0.6531,0.6544,0.6548,0.6506,0.6506,0.6506,0,0,0.6363,0.637,0.6381,0.64,0.6408,0.6423,0.6411,0.6429,0.6439,0.6434,0.6455,0.646,0.6471,0.6496,0.6507,0.6501,0.6543,0.6532,0.6533,0.6534,0.6546,0.655,0.6553,0.6507,0.6507,0.6507,0,0,0.6393,0.6402,0.6421,0.6429,0.644,0.6443,0.6447,0.6458,0.6461,0.6482,0.6477,0.649,0.6516,0.6523,0.653,0.6562,0.6557,0.6566,0.6581,0.6593,0.6596,0.6599,0.6608,0.6612,0.6569,0.6569,0.6569,0,0.6408,0.6431,0.6432,0.6449,0.6456,0.6451,0.647,0.6477,0.6493,0.6498,0.6492,0.6521,0.6529,0.6554,0.6561,0.6568,0.6572,0.6565,0.6596,0.6599,0.6601,0.661,0.6614,0.657,0.6569,0.6569,0.6569,0,0.6447,0.6463,0.6478,0.6491,0.6501,0.6519,0.6521,0.6531,0.6529,0.6532,0.6553,0.6561,0.6576,0.6582,0.6581,0.6606,0.6602,0.6596,0.6584,0.6606,0.6614,0.6618,0.6571,0.657,0.657,0.657,0,0,0.6489,0.6501,0.6506,0.6511,0.6522,0.6535,0.6551,0.6565,0.6572,0.6583,0.6596,0.6616,0.661,0.6618,0.6618,0.6628,0.665,0.6621,0.6621,0.6624,0.6676,0.6679,0.6683,0.6647,0.6648,0.6648,0.6674,0,0.6519,0.6548,0.6548,0.6575,0.6588,0.6582,0.6596,0.6604,0.6607,0.6618,0.6621,0.6635,0.6627,0.6631,0.6642,0.6645,0.666,0.6643,0.6658,0.6659,0.6654,0.6688,0.6692,0.6716,0.6677,0.6678,0.6678,0,0.6559,0.6569,0.6597,0.6604,0.661,0.6623,0.6634,0.6645,0.6653,0.6654,0.6662,0.666,0.6675,0.6663,0.6684,0.6673,0.6679,0.6681,0.6682,0.6683,0.6669,0.6688,0.6724,0.6727,0.6684,0.6683,0.6683,0,0.6584,0.6605,0.6624,0.6629,0.6638,0.6646,0.6651,0.6658,0.6665,0.6675,0.6679,0.6691,0.6697,0.6706,0.6706,0.6697,0.6726,0.6715,0.6727,0.6726,0.6733,0.6732,0.6768,0.6738,0.6738,0.6738,0.6738,0,0.6617,0.6634,0.6634,0.6646,0.6664,0.6663,0.6681,0.6684,0.669,0.6701,0.6697,0.6708,0.6708,0.6718,0.6719,0.6735,0.6738,0.6738,0.6738,0.6738,0.6738,0.6742,0.6739,0.6739,0.6739,0.6739,0.6739,0,0.6648,0.6649,0.6669,0.6675,0.6677,0.669,0.6695,0.6705,0.6707,0.6721,0.6724,0.6727,0.6739,0.674,0.6754,0.6754,0.6773,0.6772,0.677,0.6769,0.678,0.6779,0.682,0.6824,0.6792,0.6793,0.6793,0,0.6669,0.6681,0.6688,0.6695,0.6699,0.6711,0.6718,0.6717,0.6724,0.6733,0.6742,0.6753,0.6762,0.6781,0.6784,0.6794,0.6792,0.6806,0.6794,0.6793,0.6791,0.6789,0.679,0.6808,0.6808,0.6809,0.6809,0,0.6705,0.6704,0.6714,0.6724,0.6732,0.674,0.6747,0.6753,0.6752,0.676,0.6772,0.6779,0.6792,0.6803,0.6813,0.6816,0.6812,0.6813,0.6816,0.6815,0.6813,0.6813,0.6775,0.6812,0.6811,0.6811,0.6811,0.6811,0.673,0.674,0.6746,0.6756,0.6761,0.6767,0.6777,0.6779,0.6788,0.6799,0.6798,0.681,0.6816,0.6828,0.6833,0.6842,0.6837,0.6842,0.6843,0.6844,0.6844,0.6812,0.6844,0.6844,0.6844,0.6844,0.6844,0,0.6765,0.6767,0.6777,0.6786,0.6794,0.6789,0.6796,0.6803,0.6814,0.682,0.6828,0.684,0.685,0.6853,0.6862,0.6869,0.6867,0.6872,0.687,0.6871,0.6849,0.6844,0.6873,0.6873,0.6873,0.6873,0.6873,0.6873,0.6783,0.6799,0.6798,0.6816,0.6819,0.683,0.6834,0.6839,0.6844,0.6857,0.6865,0.6867,0.6871,0.688,0.6889,0.6889,0.6892,0.6897,0.6897,0.6876,0.6873,0.687,0.6866,0.6898,0.6898,0.6918,0.6918,0.6919]},{"header":{"parameterUnit":"m.s-1","parameterCategory":1,"la1":30.2991,"la2":30.254,"lo1":-89.0895,"lo2":-89.0444,"dy":0.0017,"dx":0.0017,"nx":28,"ny":28,"refTime":"2025-04-08T03:00:00:Z","depth":0,"parameterNumber":3,"parameterNumberName":"V-component_of_WINDS"},"data":[0,0,0,0,0,0,0,0,0,0,0,0,0,0,0,0,0,0,0,0,0,0,0,0,0,0,0,0,0,0,0,0,0,0,0,0,0,0,0,0,0,0,0,0,0,0,0,0,0,0,0,0,0,0,0,0,0,0,2.7867,2.7866,0,2.7814,2.7813,2.7813,2.7736,2.7735,2.7734,2.7732,2.7679,2.7679,2.7678,0,0,0,0,0,0,0,0,0,0,0,0,0,2.7902,2.7901,2.7867,2.7866,2.7866,2.7814,2.7813,2.7813,2.7737,2.7735,2.7733,2.7732,2.7679,2.7679,2.7678,0,0,0,0,0,0,0,0,0,0,0,0,0,2.7872,2.7901,2.7867,2.7822,2.7817,2.7814,2.7813,2.7812,2.7737,2.7735,2.7733,2.7731,2.7679,2.7679,2.7678,2.7716,0,0,2.7677,2.7677,0,0,0,0,0,0,0,0,2.7873,2.787,2.7829,2.7825,2.7819,2.778,2.7806,2.778,2.7737,2.7767,2.7732,2.773,2.7714,2.7711,2.7705,2.7714,2.7711,2.7677,2.7677,2.7677,2.7677,0,0,0,0,0,0,0,2.7876,2.7872,2.7846,2.7828,2.7823,2.7803,2.7797,2.7801,2.7752,2.7765,2.7759,2.7754,2.7711,2.7706,2.7703,2.7711,2.7677,2.7677,2.7677,2.7677,2.7744,2.7746,0,0,0,0,0,0,2.7884,2.7874,2.7848,2.7844,2.7842,2.7804,2.7797,2.7795,2.7752,2.7744,2.7755,2.775,2.7707,2.7704,2.7701,2.774,2.7677,2.7677,2.7677,2.7742,2.7745,2.7747,0,0,0,0,0,0,2.7885,2.7883,2.785,2.7858,2.7852,2.7806,2.7804,2.7795,2.7789,2.7745,2.7736,2.7759,2.7705,2.7702,2.7712,2.7737,2.7677,2.7676,2.774,2.7743,2.7746,2.7821,0,0,0,0,0,0,2.7887,2.7884,2.7898,2.7859,2.7852,2.7862,2.7805,2.7795,2.7789,2.7781,2.7746,2.7738,2.7704,2.7713,2.7712,2.7736,2.7676,2.7738,2.7741,2.7745,2.7816,2.7826,2.7834,0,0,0,0,0,2.7888,2.7922,2.7899,2.7896,2.7869,2.7864,2.786,2.7819,2.7791,2.7804,2.7776,2.7739,2.7735,2.7715,2.7713,2.7737,2.7736,2.774,2.7745,2.7811,2.7824,2.7834,0,0,0,0,0,0,2.7965,2.7916,2.789,2.7912,2.7893,2.7851,2.7867,2.7834,2.7823,2.7817,2.7767,2.776,2.7776,2.7758,2.7736,2.777,2.773,2.7734,2.7781,2.7793,2.7802,2.7805,2.7676,0,0,0,0,0,2.7985,2.7985,2.7942,2.7965,2.7957,2.7914,2.791,2.788,2.7859,2.785,2.7823,2.7803,2.7797,2.7794,2.7786,2.7813,2.7803,2.7829,2.7838,2.7846,2.785,2.786,2.787,2.7761,2.7761,2.7761,0,0,2.8025,2.7998,2.8002,2.798,2.7962,2.7962,2.7908,2.7911,2.7911,2.7851,2.7858,2.7838,2.7812,2.7831,2.7837,2.7816,2.7877,2.7852,2.7858,2.7857,2.7865,2.7876,2.7885,2.7764,2.7764,2.7763,0,0,2.8099,2.8079,2.8095,2.8078,2.805,2.8021,2.8025,2.7988,2.7972,2.7979,2.7933,2.7932,2.7923,2.7906,2.7896,2.7962,2.7927,2.7961,2.8009,2.802,2.8028,2.8035,2.8056,2.8065,2.7965,2.7965,2.7965,0,2.8152,2.8152,2.8108,2.8113,2.8105,2.805,2.8065,2.805,2.8022,2.8017,2.7993,2.7979,2.7959,2.7971,2.7987,2.7982,2.7983,2.7964,2.8031,2.8037,2.8044,2.8063,2.8071,2.7969,2.7969,2.7968,2.7968,0,2.8218,2.8218,2.8234,2.8207,2.82,2.8211,2.8168,2.8166,2.8137,2.811,2.8117,2.809,2.8074,2.8075,2.8048,2.8083,2.807,2.804,2.7998,2.8059,2.8076,2.8083,2.7975,2.7974,2.7973,2.7972,0,0,2.8338,2.8286,2.8292,2.8278,2.8243,2.8242,2.825,2.8235,2.8233,2.8216,2.8219,2.8213,2.8183,2.8172,2.8141,2.8151,2.8201,2.8119,2.8117,2.8133,2.8236,2.8258,2.8268,2.8179,2.818,2.8181,2.8238,0,2.8403,2.8412,2.8373,2.8392,2.8391,2.8338,2.8345,2.8324,2.8299,2.8293,2.8266,2.8261,2.8224,2.8216,2.8223,2.8194,2.8221,2.819,2.818,2.818,2.8186,2.8277,2.8301,2.8355,2.8244,2.8245,2.8246,0,2.848,2.8465,2.8485,2.8447,2.8445,2.8451,2.8432,2.8429,2.8403,2.8384,2.8371,2.8335,2.8339,2.83,2.8303,2.8283,2.8276,2.8261,2.8263,2.8259,2.8216,2.8274,2.8372,2.838,2.8257,2.8256,2.8255,0,2.8562,2.8548,2.8557,2.8547,2.8504,2.8509,2.8492,2.8464,2.8457,2.8441,2.8435,2.842,2.8411,2.84,2.836,2.8336,2.8367,2.8326,2.835,2.8351,2.8358,2.8357,2.8455,2.8358,2.8357,2.8357,2.8357,0,2.8638,2.8651,2.8593,2.8599,2.8612,2.8566,2.858,2.8557,2.8532,2.8532,2.8486,2.8486,2.8435,2.8429,2.8399,2.8404,2.8402,2.8385,2.8376,2.8388,2.839,2.8382,2.8376,2.8359,2.8359,2.8358,2.8358,0,2.8732,2.8694,2.87,2.8658,2.8648,2.8659,2.8623,2.8626,2.8598,2.8597,2.8595,2.855,2.8541,2.8501,2.8482,2.8461,2.8476,2.8461,2.8485,2.8479,2.8504,2.8502,2.8598,2.8608,2.8507,2.8508,2.8509,0,2.8782,2.8791,2.875,2.8746,2.873,2.8725,2.8716,2.8671,2.8664,2.8635,2.8641,2.8628,2.8614,2.8602,2.8567,2.8552,2.8534,2.8569,2.8532,2.8542,2.8532,2.8531,2.8531,2.8577,2.8578,2.8579,2.858,0,2.8873,2.8853,2.8843,2.8826,2.8818,2.8802,2.8784,2.8783,2.8733,2.8727,2.8717,2.8707,2.8687,2.8673,2.8652,2.8633,2.8598,2.8593,2.8597,2.8608,2.862,2.8611,2.8505,2.859,2.8589,2.8588,2.8588,2.8588,2.8945,2.8949,2.8921,2.8911,2.8892,2.8876,2.8875,2.8847,2.8837,2.8817,2.8791,2.8784,2.8756,2.8724,2.8707,2.87,2.868,2.8687,2.8688,2.869,2.8695,2.8623,2.8696,2.8696,2.8695,2.8695,2.8695,0,2.9032,2.9011,2.9002,2.8977,2.8969,2.8937,2.8914,2.8909,2.8903,2.888,2.8868,2.8855,2.8841,2.8806,2.8788,2.8789,2.8772,2.8786,2.8784,2.878,2.8715,2.8712,2.8799,2.8799,2.8799,2.8799,2.8799,2.8799,2.9076,2.9081,2.9058,2.9053,2.9031,2.9023,2.9013,2.8997,2.8978,2.8966,2.8954,2.8931,2.8902,2.8882,2.8868,2.8858,2.8852,2.8871,2.8855,2.8795,2.8785,2.8775,2.8772,2.8871,2.8871,2.892,2.8921,2.8921]}]]